Regional Weather Roundup
Issued by NWS Goodland, KS

Home | Current Version | Previous Version | Text Only | Print | Product List | Glossary On
Versions: 1 2 3 4 5 6 7 8 9 10 11 12 13 14 15 16 17 18 19 20 21 22 23 24 25 26 27 28 29 30 31 32 33 34 35 36 37 38 39 40 41 42 43 44 45 46 47 48 49 50
000
ASUS43 KGLD 271908
RWRGLD

GOODLAND FORECAST AREA HOURLY WEATHER ROUNDUP
NATIONAL WEATHER SERVICE GOODLAND KS
100 PM MDT MON MAR 27 2017

...OFFICIAL OBSERVATIONS...

CITY           SKY/WX    TMP DP  RH WIND       PRES   REMARKS
GOODLAND KS    SUNNY     61  40  45 S9        29.91F
HILL CITY KS   MOSUNNY   54  46  74 E7        29.96F
IMPERIAL NEB   SUNNY     61  38  42 VRB3      29.91F
MCCOOK NEB     SUNNY     61  41  47 S6        29.91F
AKRON CO       MOSUNNY   61  32  33 SE15      29.89F
BURLINGTON CO  SUNNY     60  39  45 S12       29.91F
LIMON CO       MOSUNNY   57  33  40 S12G24    29.91F
$$

...UNOFFICIAL OBSERVATIONS...

CITY           SKY/WX    TMP DP  RH WIND       PRES   REMARKS
LENORA KS        N/A     62  32  32 CALM        N/A
NORTON KS      CLOUDY    50  43  76 SE9       29.95
SHARON SPRINGS   N/A     61  45  56 CALM        N/A
TRENTON NEB      N/A     62  32  32 CALM        N/A
KIT CARSON CO    N/A     59  37  44 MISG        N/A
YUMA CO        FAIR      61  34  36 S8G16     29.89F
$$



USA.gov is the U.S. government's official web portal to all federal, state and local government web resources and services.